Regional Weather Roundup
Issued by NWS

Home | Current Version | Previous Version | Text Only | Print | Product List | Glossary Off
Versions: 1 2 3 4 5 6 7 8 9 10 11 12 13 14 15 16 17 18 19 20 21 22 23 24 25 26 27 28 29 30 31 32 33 34 35 36 37 38 39 40 41 42 43 44 45 46 47 48 49 50

000
ASUS43 KLOT 160600
RWRIL

ILLINOIS REGIONAL WEATHER ROUNDUP
NATIONAL WEATHER SERVICE CHICAGO/ROMEOVILLE IL
100 AM CDT TUE SEP 16 2014

NOTE: "FAIR" INDICATES FEW OR NO CLOUDS BELOW 12,000 FEET WITH NO
SIGNIFICANT WEATHER AND/OR OBSTRUCTIONS TO VISIBILITY.

* THESE STATIONS ARE NOT UNDER NWS QUALITY CONTROL. THEY ALSO MAY NOT
  REPORT WEATHER SUCH AS PRECIPITATION OR FOG.

ILZ001-002-007-009-015-016-024-160700-
NORTHWEST ILLINOIS

CITY           SKY/WX    TMP DP  RH WIND       PRES   REMARKS
MOLINE         CLEAR     45  43  93 SW6       30.23R
6HR MIN TEMP:  44; 6HR MAX TEMP:  58;

STERLING*      CLEAR     46  43  87 CALM      30.20S
$$

ILZ003-004-008-010-011-017-018-160700-
NORTH CENTRAL ILLINOIS

CITY           SKY/WX    TMP DP  RH WIND       PRES   REMARKS
ROCKFORD       CLEAR     44  41  89 W3        30.22S
6HR MIN TEMP:  43; 6HR MAX TEMP:  54;

FREEPORT*      CLEAR     42  41  95 W3        30.22S
$$

ILZ005-006-012>014-019>023-160700-
NORTHEAST ILLINOIS

CITY           SKY/WX    TMP DP  RH WIND       PRES   REMARKS
CHICAGO-OHARE  PTCLDY    51  47  86 NW6       30.18S
6HR MIN TEMP:  51; 6HR MAX TEMP:  57;

CHICAGO-MIDWAY PTCLDY    54  49  83 N9        30.17S
6HR MIN TEMP:  54; 6HR MAX TEMP:  60; 6HR PCP: TRACE;

AURORA         CLEAR     45  43  93 NW5       30.19S
6HR MIN TEMP:  45; 6HR MAX TEMP:  57;

LANSING*       CLEAR     52  49  91 NW5       30.17R
WAUKEGAN       CLEAR     46  44  93 W5        30.17S
6HR MIN TEMP:  46; 6HR MAX TEMP:  53;

DUPAGE AIRPORT CLEAR     47  44  90 NW6       30.19R
6HR MIN TEMP:  47; 6HR MAX TEMP:  56;

WHEELING       CLEAR     49  45  86 CALM      30.19S
6HR MIN TEMP:  49; 6HR MAX TEMP:  57;

NORTHERLY ISL    N/A     54  47  77 NW8         N/A
$$

LMZ740>746-160700-
SOUTHERN LAKE MICHIGAN

STATION/POSITION SKY/WX   TEMP    WIND        PRES    VSBY  WAVE
                          AIR SEA DIR/SP/G                  HT/PER
                          (F)     (DEG/KT/KT) (MB)    (MI)  (FT/S)
SOUTHERN BUOY              58 65  340/ 10/ 12 1021.2R         2/ 3
WAUKEGAN HARBOR            51     310/  6/ 10   N/A
HARRISON CRIB              54     310/ 12/ 13   N/A
BURNHAM HARBOR             54     310/  8/  9   N/A
CALUMET HARBOR             53                 1020.3
MICHIGAN CITY              59     330/ 18/ 21   N/A
MICHIGAN CITY 6N           59 64  350/ 14/ 17   N/A           4/ 5
ST. JOSEPH                 57 66   60/  8/ 14   N/A           3/ 5
$$

ILZ025>027-034>036-040-047-049-050-058-095>099-160700-
WEST-CENTRAL ILLINOIS

CITY           SKY/WX    TMP DP  RH WIND       PRES   REMARKS
QUINCY         CLEAR     51  49  92 N3        30.22R
GALESBURG*     CLEAR     45  45  97 NW3       30.22S
MACOMB*        CLEAR     46  46  99 N5        30.24S
$$

ILZ028>032-037-038-041>044-048-051>054-059>061-160700-
CENTRAL ILLINOIS

CITY           SKY/WX    TMP DP  RH WIND       PRES   REMARKS
DECATUR        CLOUDY    56  53  90 N10       30.18R
PEORIA         CLOUDY    55  49  80 N3        30.21R
6HR MIN TEMP:  55; 6HR MAX TEMP:  60;

SPRINGFIELD    CLOUDY    56  54  93 N3        30.20R
6HR MIN TEMP:  55; 6HR MAX TEMP:  61;

TAYLORVILLE    NOT AVBL
$$

ILZ033-039-045-046-055>057-062-063-160700-
EAST-CENTRAL ILLINOIS

CITY           SKY/WX    TMP DP  RH WIND       PRES   REMARKS
CHAMPAIGN      CLOUDY    56  54  93 N8        30.17R
MATTOON        CLOUDY    57  55  93 N10       30.14R
$$

ILZ079-100>102-160700-
SOUTHWEST ILLINOIS

CITY           SKY/WX    TMP DP  RH WIND       PRES   REMARKS
ALTON          CLOUDY    58  56  92 N5        30.18S
BELLEVILLE     MOCLDY    59  57  96 NW8       30.17R
CAHOKIA*       PTCLDY    60  57  89 N7        30.17S
$$

ILZ064>066-069>071-074>076-080>082-084>086-088>090-092>094-160700-
SOUTH-CENTRAL ILLINOIS

CITY           SKY/WX    TMP DP  RH WIND       PRES   REMARKS
CARBONDALE     CLOUDY    63  60  90 N6        30.15R
6HR MIN TEMP:  63; 6HR MAX TEMP:  73; 6HR PCP: TRACE;

MT. VERNON     CLOUDY    61  55  82 N5        30.15R
$$

ILZ067-068-072-073-078-083-087-091-160700-
SOUTHEAST ILLINOIS

CITY           SKY/WX    TMP DP  RH WIND       PRES   REMARKS
LAWRENCEVILLE  CLOUDY    60  59  96 N8        30.11S FOG
HARRISBURG*    CLOUDY    64  63  97 N9        30.13S
$$

ABBREVIATIONS USED IN REMARKS
   TC - TEMPERATURE IN CELSIUS
  WCI - WIND CHILL INDEX
   HX - HEAT INDEX
  VSB - VISIBILITY
$$



USA.gov is the U.S. government's official web portal to all federal, state and local government web resources and services.